Weather History for Central Park, NY

Change the Weather History Date:

Sunday, June 26, 2011

  Actual Average Record
Temperature  
Mean Temperature 73 °F 74 °F  
Max Temperature 79 °F 82 °F 100 °F (1952)
Min Temperature 66 °F 67 °F 56 °F (1979)
Degree Days  
Heating Degree Days 0 0  
Month to date heating degree days 2 17  
Since 1 June heating degree days 2 17  
Since 1 July heating degree days 4726 4748  
Cooling Degree Days 8 9  
Month to date cooling degree days 188 172  
Year to date cooling degree days 288 241  
Since 1 June cooling degree days 188 172  
Growing Degree Days 22 (Base 50)    
Moisture  
Dew Point 59 °F    
Average Humidity 65    
Maximum Humidity 78    
Minimum Humidity 52    
Precipitation  
Precipitation 0.00 in 0.13 in 4.29 in (1884)
Month to date precipitation 3.15 3.91  
Year to date precipitation 28.20 23.70  
Snow  
Snow 0.00 in 0.00 in 0.00 in (2002)
Month to date snowfall 0.0 0.0  
Since 1 July snowfall 61.9 25.8  
Snow Depth 0.00 in    
Sea Level Pressure  
Sea Level Pressure 29.93 in    
Wind  
Wind Speed 4 mph (West)    
Max Wind Speed 10 mph    
Max Gust Speed 15 mph    
Visibility 10 miles    
Events      
T = Trace of Precipitation, MM = Missing Value Source: NWS Daily Summary

Daily Weather History Graph

Daily Weather History Graph

Search for Another Location

Airport:

Trip Planner

Search our weather history database for the weather conditions in past years. The results will help you decide how hot, cold, wet, or windy it might be!

Date:

Astronomy

Jun. 26, 2011 Rise Set
Actual Time 5:25 AM EDT 8:31 PM EDT
Civil Twilight 4:52 AM EDT 9:04 PM EDT
Nautical Twilight 4:09 AM EDT 9:47 PM EDT
Astronomical Twilight 3:19 AM EDT 10:37 PM EDT
Moon 1:42 AM EDT (6/26) 4:16 PM EDT (6/26)
Length of Visible Light 16h 12m
Length of Day
15h 05m
Waning Crescent, 22% of the Moon is Illuminated
Jun 26
Waning Crescent
Jul 1
New
Jul 8
First Quarter
Jul 15
Full
Jul 23
Last Quarter

Hourly Weather History & Observations

Time (EDT) Temp. Dew Point Humidity Pressure Visibility Wind Dir Wind Speed Gust Speed Precip Events Conditions
12:51 AM 72.0 °F 59.0 °F 64% 29.89 in 10.0 mi West 6.9 mph - N/A   Overcast
1:51 AM 72.0 °F 59.0 °F 64% 29.88 in 10.0 mi West 5.8 mph - N/A   Overcast
2:51 AM 71.1 °F 59.0 °F 66% 29.88 in 10.0 mi Calm Calm - N/A   Overcast
3:51 AM 68.0 °F 59.0 °F 73% 29.88 in 10.0 mi WSW 3.5 mph - N/A   Scattered Clouds
4:51 AM 66.9 °F 57.9 °F 73% 29.88 in 10.0 mi West 5.8 mph - N/A   Clear
5:51 AM 66.9 °F 59.0 °F 76% 29.90 in 10.0 mi West 3.5 mph - N/A   Clear
6:51 AM 66.9 °F 59.0 °F 76% 29.93 in 10.0 mi Calm Calm - N/A   Clear
7:51 AM 69.1 °F 60.1 °F 73% 29.95 in 10.0 mi Variable 5.8 mph - N/A   Clear
8:51 AM 70.0 °F 60.1 °F 71% 29.96 in 10.0 mi West 5.8 mph - N/A   Clear
9:51 AM 73.0 °F 61.0 °F 66% 29.95 in 10.0 mi West 3.5 mph - N/A   Clear
10:51 AM 75.0 °F 61.0 °F 62% 29.94 in 10.0 mi Variable 5.8 mph - N/A   Partly Cloudy
11:51 AM 78.1 °F 59.0 °F 52% 29.93 in 10.0 mi Variable 6.9 mph - N/A   Partly Cloudy
12:51 PM 75.9 °F 61.0 °F 60% 29.92 in 10.0 mi Calm Calm - N/A   Overcast
1:51 PM 75.0 °F 57.9 °F 55% 29.91 in 10.0 mi SW 9.2 mph - N/A   Overcast
2:51 PM 75.0 °F 59.0 °F 57% 29.92 in 10.0 mi West 9.2 mph - N/A   Overcast
3:51 PM 75.9 °F 60.1 °F 58% 29.91 in 10.0 mi Variable 6.9 mph - N/A   Overcast
4:51 PM 75.9 °F 57.9 °F 54% 29.92 in 10.0 mi Variable 5.8 mph - N/A   Mostly Cloudy
5:51 PM 75.0 °F 59.0 °F 57% 29.91 in 10.0 mi Variable 4.6 mph - N/A   Clear
6:51 PM 75.9 °F 59.0 °F 56% 29.93 in 10.0 mi West 6.9 mph - N/A   Clear
7:51 PM 75.0 °F 59.0 °F 57% 29.94 in 10.0 mi Variable 3.5 mph - N/A   Clear
8:51 PM 73.9 °F 57.9 °F 57% 29.95 in 10.0 mi West 3.5 mph - N/A   Clear
9:51 PM 73.0 °F 59.0 °F 61% 29.97 in 10.0 mi Calm Calm - N/A   Clear
10:51 PM 72.0 °F 59.0 °F 64% 29.97 in 10.0 mi Calm Calm - N/A   Clear
11:51 PM 72.0 °F 60.1 °F 66% 29.99 in 10.0 mi Variable 4.6 mph - N/A   Clear